Glasgow, United Kingdom

1:52 PM GMT on December 17, 2017 (GMT +0000)
Glasgow

Weather History for EGPF - December, 2017

Change the Weather History Date:

Thursday, December 7, 2017

  Actual Average Record
Temperature  
Mean Temperature 44 °F -  
Max Temperature 55 °F 43 °F 57 °F (2016)
Min Temperature 33 °F 33 °F 6 °F (2010)
Degree Days  
Heating Degree Days 21    
Moisture  
Dew Point 37 °F    
Average Humidity 79    
Maximum Humidity 93    
Minimum Humidity 66    
Precipitation  
Precipitation 0.00 in - - ()
Sea Level Pressure  
Sea Level Pressure 29.51 in    
Wind  
Wind Speed 20 mph ()    
Max Wind Speed 34 mph    
Max Gust Speed 53 mph    
Visibility 6.0 miles    
Events Rain    
Averages and records for this station are not official NWS values.
T = Trace of Precipitation, MM = Missing Value Source: Averaged Metar Reports

Daily Weather History Graph

Daily Weather History Graph

Search for Another Location

Airport or City:

Trip Planner

Search our weather history database for the weather conditions in past years. The results will help you decide how hot, cold, wet, or windy it might be!

Date:

Astronomy

Dec. 07, 2017 Rise Set
Actual Time 8:33 AM GMT 3:45 PM GMT
Civil Twilight 7:46 AM GMT 4:31 PM GMT
Nautical Twilight 6:58 AM GMT 5:19 PM GMT
Astronomical Twilight 6:13 AM GMT 6:04 PM GMT
Moon 8:35 PM GMT (12/7) 11:44 AM GMT (12/7)
Length of Visible Light 8h 44m
Length of Day
7h 12m
Waning Gibbous, 80% of the Moon is Illuminated
Dec 7
Waning Gibbous
Dec 10
Last Quarter
Dec 18
New
Dec 26
First Quarter
Jan 2
Full

Hourly Weather History & Observations

Time (GMT) Temp. Windchill Dew Point Humidity Pressure Visibility Wind Dir Wind Speed Gust Speed Precip Events Conditions
12:20 AM 55.4 °F - 51.8 °F 88% 29.33 in 3.7 mi SSW 34.5 mph - N/A Rain Light Rain
12:50 AM 55.4 °F - 51.8 °F 88% 29.30 in - SSW 31.1 mph - N/A Rain Rain
1:20 AM 55.4 °F - 51.8 °F 88% 29.30 in - SSW 34.5 mph 52.9 mph N/A Rain Rain
1:50 AM 55.4 °F - 51.8 °F 88% 29.30 in - SSW 33.4 mph 47.2 mph N/A Rain Rain
2:20 AM 53.6 °F - 50.0 °F 88% 29.30 in 5.6 mi West 19.6 mph 32.2 mph N/A Rain Light Rain
2:50 AM 50.0 °F - 46.4 °F 87% 29.33 in 6.2 mi West 20.7 mph 32.2 mph N/A   Mostly Cloudy
3:20 AM 48.2 °F - 42.8 °F 82% 29.39 in 5.0 mi West 24.2 mph 35.7 mph N/A   Overcast
3:50 AM 46.4 °F 39.5 °F 39.2 °F 76% 29.42 in 6.2 mi West 17.3 mph - N/A   Mostly Cloudy
4:20 AM 44.6 °F 37.2 °F 35.6 °F 71% 29.42 in 6.2 mi WSW 17.3 mph - N/A   Mostly Cloudy
4:50 AM 46.4 °F 39.0 °F 35.6 °F 66% 29.42 in 6.2 mi SSW 19.6 mph - N/A   Overcast
5:20 AM 44.6 °F 36.9 °F 35.6 °F 71% 29.39 in 6.2 mi SSW 18.4 mph 31.1 mph N/A   Overcast
5:50 AM 46.4 °F 37.5 °F 37.4 °F 71% 29.36 in 6.2 mi West 27.6 mph 42.6 mph N/A   Mostly Cloudy
6:20 AM 46.4 °F 37.5 °F 37.4 °F 71% 29.39 in 6.2 mi WSW 27.6 mph 40.3 mph N/A Rain Light Rain
6:50 AM 46.4 °F 37.9 °F 39.2 °F 76% 29.39 in 6.2 mi WSW 25.3 mph 39.1 mph N/A Rain Light Rain
7:20 AM 46.4 °F 37.7 °F 37.4 °F 71% 29.39 in 6.2 mi WSW 26.5 mph 38.0 mph N/A Rain Light Rain
7:50 AM 44.6 °F 36.4 °F 39.2 °F 81% 29.42 in 6.2 mi West 20.7 mph 36.8 mph N/A Rain Light Rain
8:20 AM 44.6 °F 36.4 °F 37.4 °F 76% 29.42 in 6.2 mi West 20.7 mph - N/A   Mostly Cloudy
8:50 AM 44.6 °F 35.5 °F 37.4 °F 76% 29.42 in 6.2 mi West 25.3 mph 39.1 mph N/A Rain Light Rain Showers
9:20 AM 44.6 °F 37.2 °F 37.4 °F 76% 29.44 in 6.2 mi West 17.3 mph 31.1 mph N/A Rain Light Rain
9:50 AM 44.6 °F 35.7 °F 35.6 °F 71% 29.47 in 6.2 mi West 24.2 mph 40.3 mph N/A   Scattered Clouds
10:20 AM 44.6 °F 35.7 °F 33.8 °F 66% 29.47 in 6.2 mi West 24.2 mph - N/A   Partly Cloudy
10:50 AM 41.0 °F 32.2 °F 35.6 °F 81% 29.50 in 6.2 mi West 18.4 mph - N/A Rain Light Rain
11:20 AM 41.0 °F 31.1 °F 35.6 °F 81% 29.53 in 2.5 mi West 23.0 mph 38.0 mph N/A Rain Rain Showers
11:50 AM 41.0 °F 32.5 °F 33.8 °F 76% 29.50 in 6.2 mi West 17.3 mph - N/A Rain Light Rain
12:20 PM 41.0 °F 32.2 °F 35.6 °F 81% 29.53 in 6.2 mi West 18.4 mph - N/A Rain Light Rain
12:50 PM 41.0 °F 31.4 °F 35.6 °F 81% 29.56 in 5.6 mi West 21.9 mph - N/A Rain Light Rain
1:20 PM 41.0 °F 32.8 °F 35.6 °F 81% 29.53 in 6.2 mi WSW 16.1 mph - N/A Rain Light Rain
1:50 PM 41.0 °F 33.1 °F 32.0 °F 70% 29.53 in 6.2 mi West 15.0 mph - N/A   Partly Cloudy
2:20 PM 42.8 °F 34.5 °F 32.0 °F 66% 29.53 in 6.2 mi West 18.4 mph - N/A   Unknown
2:50 PM 42.8 °F 34.5 °F 33.8 °F 70% 29.53 in 6.2 mi West 18.4 mph - N/A   Scattered Clouds
3:20 PM 39.2 °F 31.6 °F 33.8 °F 81% 29.56 in 6.2 mi NW 12.7 mph - N/A Rain Light Rain
3:50 PM 37.4 °F 27.2 °F 33.8 °F 87% 29.59 in 6.2 mi WNW 19.6 mph 32.2 mph N/A Rain Light Rain
4:20 PM 37.4 °F 29.8 °F 33.8 °F 87% 29.59 in 6.2 mi WNW 11.5 mph - N/A Rain Light Rain
4:50 PM 39.2 °F 32.0 °F 33.8 °F 81% 29.62 in 6.2 mi NW 11.5 mph 23.0 mph N/A   Mostly Cloudy
5:20 PM 39.2 °F 34.2 °F 33.8 °F 81% 29.62 in 6.2 mi WNW 6.9 mph - N/A Rain Light Rain
5:50 PM 39.2 °F 32.0 °F 33.8 °F 81% 29.62 in 6.2 mi WNW 11.5 mph - N/A Rain Light Rain
6:20 PM 37.4 °F 30.8 °F 33.8 °F 87% 29.62 in 6.2 mi West 9.2 mph - N/A Rain Light Rain
6:50 PM 37.4 °F 29.3 °F 33.8 °F 87% 29.65 in 6.2 mi West 12.7 mph - N/A Rain Light Rain
7:20 PM 37.4 °F 32.1 °F 33.8 °F 87% 29.65 in 6.2 mi West 6.9 mph - N/A Rain Light Rain
7:50 PM 35.6 °F 29.2 °F 33.8 °F 93% 29.68 in 6.2 mi WSW 8.1 mph - N/A   Unknown
8:20 PM 37.4 °F 32.1 °F 33.8 °F 87% 29.68 in 6.2 mi WSW 6.9 mph - N/A   Unknown
8:50 PM 37.4 °F 30.8 °F 32.0 °F 81% 29.68 in 6.2 mi West 9.2 mph - N/A   Unknown
9:20 PM 37.4 °F 32.1 °F 32.0 °F 81% 29.71 in 6.2 mi West 6.9 mph - N/A   Unknown
9:50 PM 35.6 °F 32.8 °F 30.2 °F 81% 29.71 in 6.2 mi Variable 3.5 mph - N/A   Unknown
10:20 PM 35.6 °F 30.7 °F 30.2 °F 81% 29.71 in 6.2 mi West 5.8 mph - N/A   Unknown
10:50 PM 33.8 °F 26.4 °F 28.4 °F 81% 29.71 in 6.2 mi SW 9.2 mph - N/A   Unknown
11:20 PM 35.6 °F 30.7 °F 28.4 °F 75% 29.74 in 6.2 mi West 5.8 mph - N/A   Mostly Cloudy
11:50 PM 35.6 °F 28.0 °F 28.4 °F 75% 29.74 in 6.2 mi WNW 10.4 mph - N/A   Partly Cloudy